Hourly Data Report for September 04, 2017

All times are specified in Local Standard Time (LST). Add 1 hour to adjust for Daylight Saving Time where and when it is observed.

EUREKA CLIMATE
NUNAVUT

79°59'21.000" N
85°56'02.000" W
10.00 m
2401199
71613
NEK

Download Data

Hourly Data (September 2017)
Hourly Data Report for September 4, 2017
Temp Definition
°C
Dew Point Temp Definition
°C
Rel Hum Definition
%
Wind Dir Definition
10's deg

Wind Spd Definition
km/h
Visibility Definition
km
Stn Press Definition
kPa
Hmdx Definition


Wind Chill Definition


Weather Definition


TIME
00:00 -6.3 -8.0 87 28 31   101.28   -15 LegendNANA
01:00 -5.7 -8.2 82 28 21   101.32   -13 LegendNANA
02:00 -6.3 -8.7 83 28 24   101.37   -14 LegendNANA
03:00 -6.1 -8.6 82 28 18   101.40   -13 LegendNANA
04:00 -6.3 -8.1 87 28 24   101.40   -14 LegendNANA
05:00 -5.8 -8.7 80 28 19   101.39   -12 LegendNANA
06:00 -5.7 -8.1 83 28 19   101.39   -12 LegendNANA
07:00 -6.2 -8.1 86 29 28   101.38   -14 LegendNANA
08:00 -5.9 -7.7 87 28 28   101.37   -14 LegendNANA
09:00 -5.9 -7.6 88 28 34   101.34   -15 LegendNANA
10:00 -5.9 -7.2 91 28 38   101.33   -15 LegendNANA
11:00 -5.7 -7.3 88 28 35   101.32   -14 LegendNANA
12:00 -5.5 -7.0 89 28 29   101.34   -14 LegendNANA
13:00 -5.3 -7.2 86 30 25   101.37   -13 LegendNANA
14:00 -5.1 -7.2 85 29 26   101.37   -13 LegendNANA
15:00 -4.9 -7.2 84 29 19   101.39   -11 LegendNANA
16:00 -5.1 -7.4 84 29 29   101.38   -13 LegendNANA
17:00 -5.2 -7.4 85 29 30   101.37   -13 LegendNANA
18:00 -5.3 -7.5 84 28 28   101.37   -13 LegendNANA
19:00 -5.5 -7.0 90 29 28   101.37   -13 LegendNANA
20:00 -5.9 -7.3 89 29 28   101.34   -14 LegendNANA
21:00 -5.5 -8.1 82 34 8   101.37   -9 LegendNANA
22:00 -5.7 -7.1 90 28 16   101.32   -12 LegendNANA
23:00 -6.0 -7.4 90 28 21   101.29   -13 LegendNANA

Notes on Data Quality.

Legend

  • E = Estimated
  • M = Missing
  • NA = Not Available
  • ‡ = Partner data that is not subject to review by the National Climate Archives
Date modified: